Temp
-10 -11 -11 -11 -11 -10 -10 -9 -9 -9 -9 -9 -9 -9 -9 -9 -9 -9 -9 -8 -8 -8 -8 -8 -8 -8 -8 -8 -8 -8 -8 -9 -9 -9 -9 -8 -8 -8 -8 -8 -8 -8
-10 -10 -11 -11 -11 -11 -11 -11 -10 -10 -10 -10 -10 -10 -10 -10 -10 -10 -9 -9 -9 -9 -9 -9 -8 -8 -8 -8 -8 -8 -9 -9 -9 -9 -9 -9 -9 -9 -9 -9 -9 -9
-10 -10 -10 -11 -11 -11 -11 -11 -11 -11 -10 -10 -10 -10 -10 -10 -10 -10 -10 -10 -10 -10 -10 -9 -9 -9 -9 -9 -9 -9 -9 -9 -9 -9 -9 -9 -9 -9 -9 -9 -9 -9
-11 -11 -11 -11 -11 -11 -11 -11 -12 -12 -11 -11 -11 -11 -11 -11 -11 -11 -11 -11 -11 -11 -10 -10 -10 -10 -10 -10 -9 -9 -9 -9 -9 -9 -9 -9 -9 -9 -9 -9 -9 -9
-12 -12 -12 -11 -11 -11 -11 -11 -12 -12 -12 -12 -12 -12 -11 -11 -12 -12 -12 -12 -12 -12 -11 -11 -11 -11 -11 -10 -10 -10 -10 -10 -10 -10 -10 -10 -10 -10 -10 -10 -10 -10
-13 -12 -13 -12 -12 -12 -12 -12 -12 -12 -12 -12 -12 -12 -12 -12 -12 -12 -12 -12 -12 -12 -12 -12 -12 -11 -11 -11 -11 -11 -11 -11 -11 -10 -10 -10 -10 -10 -10 -10 -10 -10
-14 -14 -14 -13 -13 -13 -13 -13 -13 -13 -13 -13 -13 -13 -13 -12 -12 -12 -12 -12 -12 -12 -12 -12 -12 -12 -12 -12 -12 -12 -11 -11 -11 -11 -11 -11 -11 -11 -11 -11 -11 -11
-16 -15 -15 -15 -14 -14 -14 -14 -14 -14 -14 -14 -13 -14 -14 -13 -13 -13 -12 -12 -12 -13 -13 -13 -13 -13 -12 -12 -12 -12 -12 -12 -12 -12 -12 -12 -12 -12 -12 -12 -12 -12
-17 -17 -16 -16 -16 -15 -16 -16 -15 -15 -15 -15 -14 -14 -14 -14 -14 -14 -13 -13 -13 -13 -13 -13 -13 -13 -13 -13 -13 -12 -12 -12 -12 -12 -12 -12 -12 -12 -12 -12 -12 -12
-18 -18 -18 -17 -17 -17 -17 -17 -17 -16 -16 -16 -15 -15 -15 -15 -15 -15 -14 -14 -14 -13 -13 -13 -13 -13 -13 -13 -13 -13 -13 -13 -13 -13 -13 -13 -13 -13 -13 -13 -13 -13
-19 -19 -19 -19 -18 -18 -18 -18 -18 -17 -17 -17 -17 -16 -16 -16 -16 -16 -15 -15 -15 -14 -14 -14 -14 -14 -14 -14 -14 -14 -14 -13 -13 -13 -13 -13 -13 -13 -13 -13 -13 -13
-20 -20 -20 -20 -20 -19 -19 -19 -19 -18 -18 -18 -18 -17 -17 -17 -17 -17 -16 -16 -16 -16 -15 -15 -14 -15 -15 -14 -14 -14 -14 -14 -14 -14 -14 -14 -14 -13 -13 -13 -13 -13
-21 -21 -21 -21 -20 -20 -20 -20 -20 -19 -19 -19 -19 -18 -18 -18 -17 -17 -17 -17 -17 -17 -17 -16 -16 -16 -15 -15 -15 -15 -15 -15 -15 -15 -15 -14 -14 -14 -14 -14 -14 -14
-21 -21 -21 -21 -21 -21 -21 -20 -20 -20 -20 -20 -20 -19 -19 -19 -18 -18 -18 -18 -18 -18 -18 -18 -18 -17 -17 -16 -16 -16 -16 -16 -16 -15 -15 -15 -15 -15 -15 -15 -15 -15
-21 -21 -21 -21 -21 -21 -21 -21 -21 -21 -21 -20 -20 -20 -20 -19 -19 -19 -18 -18 -19 -19 -19 -19 -19 -18 -18 -18 -17 -17 -16 -16 -16 -16 -16 -16 -16 -15 -15 -15 -15 -16
-22 -21 -21 -21 -21 -21 -21 -21 -21 -21 -21 -21 -21 -21 -20 -20 -20 -20 -19 -19 -19 -20 -20 -20 -19 -19 -19 -19 -18 -18 -18 -17 -17 -17 -16 -16 -16 -16 -16 -16 -16 -16
-22 -22 -22 -22 -22 -22 -22 -22 -22 -22 -22 -21 -21 -21 -21 -21 -20 -20 -20 -20 -20 -20 -20 -20 -20 -20 -20 -20 -19 -19 -19 -18 -18 -17 -17 -16 -16 -16 -17 -17 -17 -17
-22 -22 -22 -22 -22 -22 -22 -22 -22 -22 -22 -22 -22 -22 -21 -21 -21 -21 -21 -21 -21 -21 -21 -21 -21 -20 -20 -20 -20 -20 -19 -19 -18 -18 -17 -17 -17 -17 -18 -18 -17 -17
-23 -22 -22 -22 -22 -22 -22 -22 -23 -23 -23 -22 -22 -22 -22 -22 -22 -21 -21 -21 -21 -21 -21 -21 -21 -21 -21 -20 -20 -20 -20 -19 -19 -18 -18 -18 -18 -18 -18 -18 -17 -17
-23 -23 -22 -22 -23 -23 -23 -23 -23 -23 -23 -23 -23 -23 -22 -22 -22 -22 -22 -22 -22 -22 -22 -21 -21 -21 -21 -21 -20 -20 -20 -19 -19 -19 -19 -19 -19 -19 -18 -18 -18 -18
-24 -23 -23 -23 -23 -23 -23 -23 -23 -23 -23 -23 -23 -23 -23 -23 -23 -22 -22 -22 -22 -22 -22 -22 -22 -21 -21 -21 -21 -21 -20 -20 -20 -20 -20 -20 -20 -20 -19 -19 -19 -19
-24 -23 -23 -23 -24 -24 -23 -23 -24 -24 -24 -24 -24 -24 -24 -23 -23 -23 -23 -23 -23 -22 -22 -22 -22 -22 -22 -21 -21 -21 -21 -21 -21 -21 -20 -20 -20 -20 -20 -20 -20 -19
-24 -24 -24 -24 -24 -24 -24 -24 -24 -24 -24 -24 -24 -24 -24 -24 -24 -24 -23 -23 -23 -23 -23 -23 -22 -22 -22 -22 -22 -22 -21 -21 -22 -21 -21 -21 -21 -21 -21 -21 -20 -20
-24 -24 -24 -24 -24 -24 -24 -24 -25 -25 -24 -25 -25 -25 -25 -24 -24 -24 -24 -24 -24 -23 -23 -23 -23 -23 -23 -23 -23 -22 -22 -22 -22 -22 -22 -22 -22 -22 -21 -21 -21 -21
-24 -24 -24 -25 -25 -25 -25 -25 -25 -25 -25 -25 -25 -25 -25 -25 -25 -24 -24 -24 -24 -24 -24 -24 -24 -23 -23 -23 -23 -23 -22 -22 -22 -22 -22 -23 -22 -22 -22 -21 -21 -21
-24 -24 -24 -25 -25 -25 -25 -25 -26 -26 -25 -25 -25 -25 -25 -25 -25 -25 -25 -25 -25 -24 -24 -24 -24 -24 -24 -24 -24 -23 -23 -22 -22 -23 -23 -23 -22 -22 -22 -22 -22 -22
Height
2989 2988 2987 2986 2985 2985 2984 2983 2982 2980 2979 2979 2978 2978 2978 2977 2977 2976 2976 2976 2975 2975 2975 2975 2975 2975 2975 2976 2976 2977 2978 2979 2980 2981 2982 2982 2984 2985 2985 2986 2987 2988
2983 2982 2980 2979 2979 2978 2977 2977 2975 2974 2973 2972 2972 2972 2971 2971 2971 2971 2970 2970 2970 2970 2969 2969 2969 2969 2969 2969 2970 2970 2971 2971 2972 2974 2974 2975 2976 2977 2978 2979 2980 2980
2978 2976 2975 2973 2972 2971 2970 2970 2969 2968 2968 2967 2966 2965 2965 2965 2965 2965 2964 2964 2964 2964 2964 2963 2963 2963 2963 2963 2963 2963 2964 2964 2965 2966 2967 2968 2969 2969 2971 2972 2972 2973
2973 2971 2969 2968 2966 2965 2963 2963 2962 2962 2961 2961 2960 2959 2958 2958 2958 2958 2958 2958 2958 2958 2958 2958 2957 2957 2957 2958 2958 2958 2958 2958 2959 2959 2960 2961 2961 2962 2963 2964 2965 2966
2966 2965 2963 2962 2960 2958 2957 2955 2955 2954 2954 2953 2953 2953 2952 2952 2952 2951 2951 2951 2951 2951 2951 2951 2951 2952 2951 2952 2952 2952 2952 2952 2953 2953 2953 2954 2955 2956 2956 2957 2958 2959
2959 2958 2956 2954 2954 2953 2950 2948 2947 2947 2946 2946 2946 2945 2945 2945 2944 2944 2944 2944 2944 2944 2944 2945 2945 2945 2945 2945 2946 2946 2946 2946 2947 2947 2948 2948 2949 2950 2951 2951 2952 2953
2952 2951 2949 2947 2947 2946 2944 2942 2941 2940 2939 2938 2938 2938 2937 2937 2937 2937 2937 2937 2937 2937 2938 2938 2938 2939 2939 2939 2939 2940 2940 2940 2941 2941 2942 2943 2943 2944 2945 2945 2946 2947
2944 2943 2942 2940 2940 2939 2937 2935 2934 2933 2932 2931 2930 2930 2930 2929 2929 2929 2929 2929 2929 2930 2930 2931 2931 2932 2932 2932 2933 2933 2934 2934 2934 2935 2936 2936 2937 2938 2938 2939 2939 2940
2937 2935 2934 2933 2932 2932 2931 2929 2927 2926 2925 2924 2923 2922 2922 2921 2921 2921 2921 2921 2922 2922 2922 2923 2923 2924 2924 2925 2926 2926 2927 2927 2928 2928 2929 2930 2931 2931 2932 2932 2933 2934
2932 2930 2928 2926 2924 2924 2924 2922 2920 2919 2918 2917 2916 2915 2915 2914 2913 2913 2913 2914 2914 2914 2914 2914 2915 2916 2916 2917 2918 2919 2919 2920 2921 2922 2922 2923 2924 2924 2925 2926 2926 2927
2926 2925 2923 2921 2919 2917 2916 2915 2914 2912 2911 2910 2909 2908 2908 2908 2907 2906 2906 2906 2906 2906 2907 2907 2907 2908 2908 2909 2909 2910 2912 2913 2914 2915 2915 2916 2916 2917 2917 2918 2919 2920
2921 2919 2917 2916 2914 2911 2910 2908 2907 2906 2905 2903 2902 2901 2901 2900 2900 2899 2899 2898 2899 2899 2899 2899 2900 2900 2900 2901 2902 2903 2904 2905 2906 2907 2907 2908 2909 2909 2910 2910 2911 2912
2917 2914 2912 2911 2909 2907 2904 2902 2901 2900 2898 2897 2896 2895 2894 2893 2893 2892 2892 2892 2891 2891 2891 2892 2893 2893 2893 2894 2895 2896 2896 2897 2898 2899 2899 2900 2901 2902 2903 2903 2904 2904
2911 2909 2907 2906 2904 2902 2899 2897 2894 2893 2892 2891 2890 2889 2888 2887 2886 2886 2885 2885 2884 2884 2884 2885 2885 2886 2887 2888 2888 2888 2889 2890 2890 2891 2892 2893 2894 2894 2895 2896 2897 2897
2905 2903 2901 2900 2899 2897 2895 2892 2889 2887 2885 2884 2883 2882 2881 2880 2880 2879 2879 2878 2878 2877 2878 2878 2878 2879 2880 2880 2881 2881 2882 2882 2883 2884 2885 2885 2886 2887 2888 2888 2889 2890
2901 2899 2896 2894 2893 2891 2889 2887 2884 2882 2880 2878 2877 2876 2875 2874 2873 2873 2872 2872 2871 2871 2871 2871 2872 2872 2873 2874 2874 2875 2875 2876 2876 2877 2877 2878 2879 2880 2880 2881 2883 2883
2896 2894 2892 2890 2887 2886 2883 2881 2879 2877 2874 2872 2871 2870 2868 2867 2867 2866 2866 2866 2865 2865 2865 2865 2866 2866 2867 2867 2868 2868 2869 2869 2870 2870 2870 2871 2872 2873 2874 2875 2876 2876
2890 2888 2886 2884 2882 2880 2877 2875 2873 2871 2869 2867 2865 2864 2863 2861 2860 2860 2860 2860 2860 2859 2859 2860 2860 2860 2861 2861 2862 2862 2862 2863 2864 2865 2865 2866 2867 2867 2868 2868 2868 2869
2885 2882 2880 2879 2876 2874 2871 2869 2867 2865 2863 2861 2859 2858 2857 2856 2855 2854 2854 2854 2854 2854 2854 2854 2854 2854 2855 2855 2856 2856 2856 2856 2858 2859 2860 2861 2862 2861 2861 2861 2861 2862
2880 2877 2875 2873 2871 2868 2866 2863 2861 2859 2858 2856 2854 2852 2851 2850 2849 2849 2849 2848 2848 2848 2848 2849 2849 2849 2849 2849 2850 2850 2850 2850 2852 2854 2854 2855 2855 2855 2855 2855 2856 2857
2874 2872 2870 2868 2866 2863 2860 2858 2856 2853 2852 2850 2848 2847 2845 2845 2844 2844 2844 2844 2843 2843 2843 2843 2843 2844 2844 2844 2845 2844 2845 2846 2847 2847 2847 2848 2849 2849 2849 2849 2850 2851
2868 2866 2864 2862 2859 2857 2855 2852 2850 2848 2846 2844 2843 2841 2840 2839 2839 2839 2839 2839 2838 2838 2838 2838 2838 2839 2839 2839 2839 2839 2840 2842 2842 2842 2842 2842 2843 2843 2843 2844 2845 2845
2862 2860 2858 2855 2853 2851 2848 2847 2845 2843 2841 2839 2838 2837 2835 2835 2834 2834 2834 2834 2834 2834 2834 2833 2833 2834 2834 2834 2834 2835 2836 2837 2838 2837 2837 2837 2837 2838 2839 2839 2840 2840
2857 2854 2852 2849 2847 2845 2842 2841 2839 2837 2836 2834 2833 2832 2831 2830 2830 2830 2830 2830 2830 2829 2829 2829 2829 2829 2830 2830 2830 2830 2831 2832 2833 2833 2833 2834 2834 2834 2834 2835 2835 2835
2852 2849 2846 2844 2841 2839 2837 2835 2834 2832 2831 2830 2829 2828 2827 2826 2826 2826 2826 2826 2826 2826 2826 2826 2826 2826 2826 2826 2827 2827 2826 2827 2829 2830 2830 2830 2830 2830 2829 2830 2830 2829
2846 2843 2841 2838 2835 2833 2832 2830 2829 2828 2827 2826 2825 2824 2823 2823 2822 2822 2822 2822 2822 2822 2822 2822 2822 2822 2823 2823 2823 2823 2822 2822 2825 2826 2827 2826 2826 2825 2825 2824 2824 2825
Wind_Speed
39 38 36 33 33 34 36 38 39 39 38 37 37 37 36 36 37 38 38 39 39 41 42 44 45 47 48 49 50 52 54 56 57 57 58 58 59 59 60 60 60 59
43 42 40 39 37 36 35 36 38 40 41 41 40 39 39 38 37 38 39 39 39 39 40 41 42 44 45 45 46 46 48 49 51 53 55 57 58 59 59 59 59 59
45 45 44 43 42 41 39 38 37 38 40 42 43 43 42 41 40 40 40 40 39 39 40 40 41 42 43 44 45 45 46 46 46 47 48 50 52 54 54 55 55 56
45 45 45 45 44 44 43 41 40 39 39 41 42 44 44 44 43 43 42 41 41 41 41 41 41 41 42 43 44 45 45 46 45 45 46 46 47 48 48 49 49 50
45 45 45 45 45 45 45 44 43 42 41 40 41 43 44 45 45 44 44 44 43 42 42 42 42 42 42 42 42 43 44 45 45 45 45 46 46 46 46 47 47 47
45 45 45 45 45 44 44 45 45 45 44 42 42 42 43 45 46 46 46 45 45 45 44 44 44 44 44 44 44 43 43 44 44 44 45 45 45 45 45 46 46 46
44 43 43 44 44 43 43 45 45 45 46 45 44 43 43 44 45 46 47 46 46 46 46 46 46 45 45 45 45 45 45 45 44 44 44 44 44 44 44 45 45 45
43 42 42 42 43 42 42 44 44 45 45 46 46 45 44 44 44 45 46 47 47 47 47 47 47 47 47 46 46 47 47 47 47 46 46 45 45 45 44 45 45 45
42 42 42 42 42 41 41 42 44 44 44 45 46 45 45 45 45 44 45 46 47 48 48 48 48 48 48 48 47 48 48 48 48 48 48 48 47 47 46 46 46 47
41 41 41 42 43 42 40 41 42 43 44 44 45 45 45 45 45 45 44 44 46 47 48 48 48 48 48 47 47 48 48 49 49 49 49 49 49 49 49 49 49 49
41 40 40 41 42 43 42 41 41 42 43 44 44 45 44 44 44 44 45 44 44 45 46 48 48 48 48 47 48 48 48 48 48 48 49 49 49 49 50 50 51 51
43 43 42 42 42 43 43 43 42 41 42 43 43 44 44 44 43 43 44 44 44 43 44 45 46 47 48 48 48 47 47 46 47 47 47 48 49 50 50 51 51 52
43 43 43 43 43 44 44 44 44 42 42 42 42 42 43 43 43 43 43 43 43 43 43 43 44 45 47 47 47 47 46 46 47 47 47 47 47 48 48 49 50 51
44 44 44 43 43 43 44 45 45 44 43 42 41 41 41 42 42 42 42 42 42 42 42 42 42 43 44 45 46 46 46 46 46 46 47 47 46 46 46 47 48 48
46 46 46 46 45 44 44 44 45 45 44 42 41 41 40 40 40 41 41 41 41 40 40 40 40 40 41 42 43 45 46 46 46 46 46 46 47 47 47 47 46 47
47 47 47 48 47 45 44 44 44 44 44 43 42 41 40 40 40 39 40 40 40 39 38 38 38 38 38 39 40 41 43 44 45 46 46 47 47 47 47 46 45 45
48 48 48 48 48 47 45 44 43 43 43 43 41 40 39 39 39 39 39 39 38 37 37 36 36 36 36 36 37 38 40 41 43 44 45 46 46 46 44 43 43 43
49 49 49 49 48 47 46 45 44 43 43 42 41 40 39 38 38 39 38 37 36 36 35 34 34 34 34 34 34 35 37 38 40 41 42 42 42 41 41 41 42 43
49 51 51 50 48 47 47 46 45 43 42 42 40 38 37 37 37 38 38 37 35 35 34 33 32 32 32 32 32 33 34 36 36 37 37 37 37 37 39 40 42 42
48 50 50 49 47 46 47 47 45 43 42 41 40 37 36 35 35 36 36 36 35 34 33 32 31 31 31 31 31 31 32 34 33 32 32 33 33 35 37 38 39 39
48 49 48 46 45 46 47 46 45 43 42 40 38 36 35 34 33 34 34 33 33 33 32 31 30 29 29 29 29 29 31 30 29 29 30 30 30 31 32 34 34 35
46 47 46 45 44 45 46 46 44 42 41 39 36 34 33 32 32 31 31 31 31 31 30 29 28 28 27 27 27 28 29 27 26 28 29 28 28 28 28 30 30 31
45 46 46 46 46 46 46 45 43 41 39 36 33 32 32 31 30 29 29 29 28 28 28 27 27 26 26 26 26 26 26 25 24 26 27 27 26 26 26 27 28 29
45 46 46 46 46 46 46 43 40 38 36 33 31 30 30 29 28 27 27 27 26 26 25 25 25 25 25 24 24 25 25 24 23 24 25 25 24 24 25 25 26 27
45 45 46 46 46 45 43 41 37 35 32 30 29 29 28 27 26 26 25 24 23 23 23 23 23 24 23 23 23 23 25 24 23 23 22 22 22 23 24 25 26 27
46 45 45 45 44 42 40 37 34 31 29 27 27 27 26 25 24 23 22 21 21 21 21 21 22 22 22 22 21 23 25 25 23 20 20 20 22 24 25 27 28 28
Wind_Direction
302 300 296 291 285 280 279 279 280 280 278 277 274 273 272 271 271 270 269 268 267 267 266 265 264 263 262 261 260 260 259 259 258 258 258 259 259 258 258 258 257 257
300 299 298 296 292 287 282 278 277 278 278 279 278 276 274 272 270 270 270 269 268 267 266 265 265 265 264 264 263 261 260 259 258 258 257 258 258 258 259 259 260 260
297 296 296 295 294 292 289 285 280 276 275 276 277 277 276 275 273 272 271 269 269 268 268 267 266 265 265 265 265 264 263 262 260 259 258 257 257 257 257 258 258 259
294 293 293 292 292 292 291 289 286 282 277 274 274 275 275 275 274 273 272 271 270 269 268 268 267 266 265 264 264 264 264 263 263 262 261 260 259 259 258 258 258 257
291 291 290 290 289 290 289 289 287 285 282 278 275 273 273 273 273 272 272 271 271 270 269 268 267 267 266 265 264 263 263 263 262 262 261 260 260 260 260 260 260 260
291 289 288 287 286 287 287 287 286 285 284 282 278 275 273 272 271 271 270 269 269 268 268 267 266 266 266 265 265 264 263 262 262 261 261 261 260 260 260 260 260 259
295 291 289 286 284 284 284 284 283 283 283 282 280 278 275 272 270 270 269 269 267 266 266 265 264 264 263 263 264 264 263 263 262 261 261 260 260 259 259 259 259 258
299 296 292 289 286 284 284 283 282 282 281 281 280 279 277 274 271 269 268 268 268 266 265 264 263 262 261 260 260 261 261 261 261 262 261 260 260 259 259 258 258 258
303 300 297 293 290 287 286 285 283 282 281 280 279 279 278 277 274 270 268 266 266 267 266 265 264 263 262 260 259 258 258 258 258 259 259 260 260 260 259 259 259 259
307 305 302 298 295 292 290 289 287 285 283 282 280 279 278 277 276 273 270 267 264 264 265 265 265 264 263 262 261 259 258 257 257 257 257 257 257 257 257 258 258 259
313 311 308 305 302 298 296 294 292 289 287 285 283 281 279 277 277 275 273 270 266 263 262 263 264 264 264 263 262 261 261 260 259 258 258 257 257 257 256 256 256 257
318 317 315 313 310 306 303 300 296 293 291 289 286 284 281 279 277 276 274 272 269 266 263 261 261 262 262 262 262 263 262 262 261 260 259 258 258 258 258 258 258 258
318 317 317 316 314 311 308 305 301 297 294 291 289 286 283 281 278 277 275 273 271 268 265 262 260 259 260 261 262 262 262 261 261 261 261 260 260 259 259 259 259 260
318 317 315 315 314 313 310 307 304 300 297 294 291 288 285 283 280 277 276 275 272 270 267 265 262 260 258 259 260 261 261 261 261 260 261 261 261 261 260 260 260 260
315 316 315 314 313 313 311 308 305 302 299 296 293 290 287 284 281 278 277 275 274 271 269 267 265 262 260 259 258 259 260 260 261 260 260 260 260 260 261 260 261 261
312 312 313 312 312 312 311 309 306 303 300 297 294 292 289 285 282 279 277 276 274 273 271 269 266 264 262 261 259 259 258 259 260 260 260 260 260 260 261 261 262 263
309 310 310 310 310 310 309 308 306 303 300 297 295 292 289 286 282 279 278 276 275 274 272 270 268 266 264 262 260 259 257 257 257 258 259 259 260 262 263 265 265 265
307 308 309 309 309 308 308 307 305 302 300 297 295 292 289 286 282 279 277 277 276 275 273 272 270 268 266 263 260 258 257 256 255 256 257 259 261 263 264 264 263 262
305 306 307 308 308 307 306 305 304 302 299 297 295 292 289 286 281 278 277 276 276 275 274 272 270 268 267 265 263 260 259 258 257 256 257 258 258 259 259 259 260 261
301 303 304 306 305 304 304 303 302 301 299 297 296 292 288 285 280 276 275 276 276 275 274 272 270 268 267 265 264 262 261 261 261 260 259 258 256 256 257 257 259 260
299 300 301 303 303 302 302 302 301 300 299 297 295 292 288 284 279 275 274 275 275 275 274 272 270 267 266 265 263 263 262 264 264 263 261 260 259 259 259 259 260 260
298 300 301 303 302 301 301 301 301 300 298 296 294 290 287 284 279 276 275 275 275 274 273 271 269 267 265 264 263 263 263 264 264 264 265 264 263 262 262 263 264 264
302 303 303 304 303 301 301 300 300 299 297 295 292 289 287 283 280 278 276 275 274 272 271 270 268 266 265 264 263 263 264 263 263 264 266 267 267 267 267 267 268 267
304 304 303 303 302 301 301 300 300 298 296 293 290 288 286 283 281 279 276 274 272 270 269 268 267 266 266 265 266 266 265 264 263 264 266 268 271 272 272 271 269 269
304 303 303 302 301 301 300 300 299 296 293 290 288 287 285 283 281 279 276 273 270 268 267 266 266 267 267 267 268 269 268 267 266 267 270 273 275 275 274 273 271 270
306 305 304 302 302 301 300 298 297 294 291 288 287 286 285 283 281 278 275 272 269 267 266 265 266 267 268 269 270 270 270 269 269 273 276 277 276 275 274 274 274 274